[[{"header":{"parameterUnit":"m.s-1","parameterCategory":1,"la1":30.2991,"la2":30.254,"lo1":-89.0895,"lo2":-89.0444,"dy":0.0017,"dx":0.0017,"nx":28,"ny":28,"refTime":"2025-07-25T03:00:00:Z","depth":0,"parameterNumber":2,"parameterNumberName":"U-component_of_WINDS"},"data":[0,0,0,0,0,0,0,0,0,0,0,0,0,0,0,0,0,0,0,0,0,0,0,0,0,0,0,0,0,0,0,0,0,0,0,0,0,0,0,0,0,0,0,0,0,0,0,0,0,0,0,0,0,0,0,0,0,0,-2.1097,-2.1097,0,-2.1104,-2.1104,-2.1104,-2.1111,-2.1111,-2.1111,-2.1111,-2.1117,-2.1117,-2.1117,0,0,0,0,0,0,0,0,0,0,0,0,0,-2.1089,-2.1089,-2.1097,-2.1097,-2.1097,-2.1104,-2.1104,-2.1104,-2.1111,-2.1111,-2.1111,-2.1111,-2.1117,-2.1117,-2.1117,0,0,0,0,0,0,0,0,0,0,0,0,0,-2.1094,-2.1089,-2.1097,-2.1101,-2.1102,-2.1104,-2.1104,-2.1104,-2.1111,-2.1111,-2.1111,-2.1111,-2.1117,-2.1117,-2.1117,-2.1115,0,0,-2.1117,-2.1117,0,0,0,0,0,0,0,0,-2.1094,-2.1094,-2.11,-2.1101,-2.1101,-2.1107,-2.1103,-2.1108,-2.1111,-2.1107,-2.1111,-2.1111,-2.1113,-2.1114,-2.1115,-2.1115,-2.1115,-2.1117,-2.1117,-2.1117,-2.1117,0,0,0,0,0,0,0,-2.1093,-2.1094,-2.11,-2.1101,-2.1101,-2.1103,-2.1104,-2.1104,-2.1109,-2.1108,-2.1108,-2.1109,-2.1113,-2.1114,-2.1115,-2.1115,-2.1117,-2.1117,-2.1117,-2.1117,-2.1115,-2.1115,0,0,0,0,0,0,-2.1092,-2.1093,-2.1099,-2.11,-2.1098,-2.1103,-2.1104,-2.1105,-2.1109,-2.111,-2.1109,-2.1109,-2.1114,-2.1115,-2.1115,-2.1113,-2.1117,-2.1117,-2.1117,-2.1116,-2.1115,-2.1115,0,0,0,0,0,0,-2.1092,-2.1093,-2.1099,-2.1097,-2.1098,-2.1103,-2.1104,-2.1105,-2.1106,-2.111,-2.1111,-2.1109,-2.1114,-2.1115,-2.1115,-2.1113,-2.1117,-2.1118,-2.1116,-2.1115,-2.1115,-2.1109,0,0,0,0,0,0,-2.1092,-2.1093,-2.1092,-2.1097,-2.1098,-2.1099,-2.1104,-2.1105,-2.1106,-2.1107,-2.1111,-2.1111,-2.1114,-2.1115,-2.1115,-2.1114,-2.1118,-2.1116,-2.1116,-2.1115,-2.111,-2.1109,-2.1108,0,0,0,0,0,-2.1092,-2.1089,-2.1092,-2.1092,-2.1097,-2.1099,-2.11,-2.1104,-2.1106,-2.1105,-2.1108,-2.1111,-2.1114,-2.1115,-2.1115,-2.1114,-2.1116,-2.1116,-2.1115,-2.111,-2.1109,-2.1108,0,0,0,0,0,0,-2.1083,-2.109,-2.1093,-2.1092,-2.1095,-2.11,-2.1099,-2.1102,-2.1104,-2.1105,-2.111,-2.111,-2.111,-2.1112,-2.1113,-2.1112,-2.1115,-2.1115,-2.1111,-2.111,-2.111,-2.1109,-2.1118,0,0,0,0,0,-2.1082,-2.1083,-2.1089,-2.1087,-2.1089,-2.1094,-2.1095,-2.1098,-2.1101,-2.1102,-2.1105,-2.1108,-2.1109,-2.111,-2.1111,-2.111,-2.1111,-2.111,-2.1109,-2.1108,-2.1108,-2.1108,-2.1108,-2.1114,-2.1114,-2.1114,0,0,-2.1077,-2.1081,-2.1082,-2.1086,-2.1088,-2.109,-2.1095,-2.1096,-2.1097,-2.1102,-2.1103,-2.1105,-2.1108,-2.1108,-2.1108,-2.111,-2.1107,-2.1108,-2.1108,-2.1107,-2.1108,-2.1107,-2.1107,-2.1114,-2.1114,-2.1114,0,0,-2.1071,-2.1074,-2.1074,-2.1077,-2.1081,-2.1085,-2.1085,-2.109,-2.1092,-2.1093,-2.1097,-2.1098,-2.11,-2.1103,-2.1104,-2.11,-2.1103,-2.1101,-2.1097,-2.1097,-2.1097,-2.1096,-2.1095,-2.1095,-2.11,-2.11,-2.11,0,-2.1065,-2.1067,-2.1073,-2.1074,-2.1076,-2.1082,-2.1082,-2.1084,-2.1089,-2.109,-2.1092,-2.1096,-2.1098,-2.1099,-2.1098,-2.1099,-2.1099,-2.11,-2.1096,-2.1096,-2.1096,-2.1095,-2.1094,-2.11,-2.11,-2.11,-2.11,0,-2.1061,-2.1062,-2.1061,-2.1066,-2.1068,-2.1069,-2.1074,-2.1076,-2.1079,-2.1082,-2.1084,-2.1087,-2.109,-2.1091,-2.1093,-2.1092,-2.1093,-2.1096,-2.1099,-2.1095,-2.1094,-2.1093,-2.11,-2.11,-2.11,-2.11,0,0,-2.1047,-2.1057,-2.1056,-2.1059,-2.1065,-2.1066,-2.1067,-2.1071,-2.1072,-2.1075,-2.1076,-2.1079,-2.1082,-2.1084,-2.1087,-2.1087,-2.1084,-2.109,-2.109,-2.1089,-2.1084,-2.1081,-2.1081,-2.1087,-2.1087,-2.1087,-2.1083,0,-2.1042,-2.1044,-2.105,-2.1051,-2.1052,-2.1059,-2.106,-2.1064,-2.1067,-2.107,-2.1073,-2.1075,-2.1079,-2.108,-2.1081,-2.1085,-2.1083,-2.1085,-2.1087,-2.1088,-2.1086,-2.108,-2.1078,-2.1074,-2.1083,-2.1083,-2.1083,0,-2.1035,-2.1039,-2.104,-2.1047,-2.1048,-2.1048,-2.1053,-2.1055,-2.1059,-2.1062,-2.1065,-2.1069,-2.1071,-2.1074,-2.1077,-2.1078,-2.1079,-2.1081,-2.1081,-2.1081,-2.1085,-2.108,-2.1073,-2.1073,-2.1082,-2.1082,-2.1082,0,-2.1026,-2.1031,-2.1032,-2.1035,-2.1043,-2.1043,-2.1046,-2.1051,-2.1054,-2.1057,-2.1059,-2.1063,-2.1064,-2.1067,-2.1072,-2.1074,-2.1075,-2.1078,-2.1077,-2.1077,-2.1076,-2.1076,-2.1069,-2.1077,-2.1077,-2.1077,-2.1077,0,-2.1018,-2.1019,-2.1028,-2.1029,-2.103,-2.1037,-2.1038,-2.1042,-2.1046,-2.1048,-2.1054,-2.1056,-2.1063,-2.1065,-2.1069,-2.1071,-2.1072,-2.1074,-2.1075,-2.1073,-2.1073,-2.1074,-2.1074,-2.1077,-2.1077,-2.1077,-2.1077,0,-2.1007,-2.1014,-2.1016,-2.1024,-2.1026,-2.1026,-2.1033,-2.1035,-2.1039,-2.1042,-2.1043,-2.105,-2.1053,-2.1059,-2.1064,-2.1067,-2.1068,-2.1069,-2.1066,-2.1067,-2.1065,-2.1065,-2.1059,-2.1058,-2.1067,-2.1067,-2.1067,0,-2.1002,-2.1002,-2.1011,-2.1013,-2.1016,-2.1019,-2.1022,-2.1029,-2.1032,-2.1038,-2.1039,-2.1043,-2.1046,-2.1052,-2.1057,-2.1061,-2.1063,-2.1061,-2.1063,-2.1062,-2.1063,-2.1063,-2.1063,-2.106,-2.1059,-2.1059,-2.1059,0,-2.0992,-2.0995,-2.0999,-2.1004,-2.1007,-2.1012,-2.1016,-2.1017,-2.1026,-2.1028,-2.1032,-2.1035,-2.1041,-2.1045,-2.105,-2.1054,-2.1058,-2.1059,-2.1058,-2.1056,-2.1054,-2.1056,-2.1064,-2.1058,-2.1058,-2.1058,-2.1059,-2.1059,-2.0983,-2.0984,-2.0991,-2.0995,-2.1,-2.1004,-2.1006,-2.1012,-2.1015,-2.1021,-2.1025,-2.1029,-2.1035,-2.1042,-2.1046,-2.1049,-2.1051,-2.1051,-2.105,-2.105,-2.105,-2.1055,-2.105,-2.105,-2.105,-2.105,-2.105,0,-2.0973,-2.0978,-2.0982,-2.0989,-2.0992,-2.0997,-2.1003,-2.1006,-2.1009,-2.1015,-2.1019,-2.1024,-2.1028,-2.1035,-2.104,-2.1041,-2.1043,-2.1042,-2.1042,-2.1042,-2.1048,-2.1047,-2.104,-2.104,-2.104,-2.104,-2.104,-2.104,-2.0968,-2.0971,-2.0976,-2.0981,-2.0986,-2.099,-2.0993,-2.0998,-2.1002,-2.1008,-2.1012,-2.1016,-2.1022,-2.1028,-2.1033,-2.1035,-2.1036,-2.1034,-2.1037,-2.1041,-2.1042,-2.1043,-2.1043,-2.1035,-2.1035,-2.1031,-2.1031,-2.1031]},{"header":{"parameterUnit":"m.s-1","parameterCategory":1,"la1":30.2991,"la2":30.254,"lo1":-89.0895,"lo2":-89.0444,"dy":0.0017,"dx":0.0017,"nx":28,"ny":28,"refTime":"2025-07-25T03:00:00:Z","depth":0,"parameterNumber":3,"parameterNumberName":"V-component_of_WINDS"},"data":[0,0,0,0,0,0,0,0,0,0,0,0,0,0,0,0,0,0,0,0,0,0,0,0,0,0,0,0,0,0,0,0,0,0,0,0,0,0,0,0,0,0,0,0,0,0,0,0,0,0,0,0,0,0,0,0,0,0,7.2046,7.2046,0,7.2039,7.2039,7.2039,7.1952,7.195,7.1948,7.1945,7.194,7.1942,7.1944,0,0,0,0,0,0,0,0,0,0,0,0,0,7.1982,7.1984,7.2046,7.2046,7.2045,7.2039,7.2039,7.2039,7.1952,7.195,7.1947,7.1944,7.1939,7.1942,7.1944,0,0,0,0,0,0,0,0,0,0,0,0,0,7.1996,7.1984,7.2046,7.2001,7.1997,7.2039,7.2039,7.2039,7.1953,7.195,7.1946,7.1943,7.1938,7.1941,7.1944,7.2028,0,0,7.1953,7.1954,0,0,0,0,0,0,0,0,7.1996,7.1999,7.2008,7.2004,7.2,7.1993,7.2015,7.2036,7.1954,7.197,7.1945,7.1942,7.196,7.1961,7.1967,7.2028,7.2028,7.1953,7.1955,7.1956,7.1957,0,0,0,0,0,0,0,7.1995,7.1998,7.2043,7.2008,7.2003,7.1982,7.198,7.2018,7.1984,7.1968,7.1962,7.1962,7.1957,7.1965,7.1967,7.2028,7.1953,7.1956,7.1957,7.1959,7.2155,7.2158,0,0,0,0,0,0,7.2,7.1998,7.2043,7.2043,7.199,7.1986,7.1984,7.1999,7.1983,7.1978,7.1965,7.1958,7.1961,7.1963,7.1966,7.2061,7.1956,7.1959,7.196,7.2151,7.2155,7.2159,0,0,0,0,0,0,7.1999,7.2005,7.2044,7.2019,7.2022,7.199,7.2008,7.2,7.2007,7.1981,7.1974,7.1979,7.1959,7.1962,7.2013,7.2059,7.196,7.1963,7.2147,7.2152,7.2157,7.2253,0,0,0,0,0,0,7.1997,7.2005,7.2037,7.202,7.2024,7.2091,7.2011,7.2003,7.2012,7.2003,7.1992,7.1987,7.1957,7.2009,7.2016,7.2061,7.1965,7.2143,7.2149,7.2156,7.2245,7.226,7.2274,0,0,0,0,0,7.1995,7.2064,7.2039,7.2044,7.2063,7.2094,7.2095,7.2059,7.2017,7.2048,7.2031,7.1987,7.2054,7.2015,7.2022,7.2069,7.2139,7.2148,7.2155,7.2239,7.2257,7.2273,0,0,0,0,0,0,7.2088,7.2062,7.2032,7.2098,7.2099,7.2079,7.2117,7.2081,7.2093,7.2084,7.2039,7.2037,7.2094,7.2087,7.2044,7.2149,7.2089,7.2099,7.215,7.2168,7.2182,7.2181,7.1967,0,0,0,0,0,7.2116,7.2143,7.2119,7.2179,7.2181,7.2149,7.2161,7.2133,7.2132,7.2132,7.2118,7.2119,7.2139,7.2154,7.2172,7.2245,7.224,7.2281,7.2295,7.2307,7.2315,7.235,7.2367,7.2185,7.2185,7.2185,0,0,7.2174,7.2163,7.2183,7.2197,7.2194,7.2222,7.215,7.2184,7.2204,7.2137,7.2182,7.2173,7.2171,7.2232,7.2259,7.2228,7.2365,7.2317,7.2327,7.2328,7.236,7.2377,7.2392,7.219,7.2189,7.2188,0,0,7.2293,7.2289,7.2337,7.2335,7.2331,7.2309,7.2321,7.2307,7.2297,7.2343,7.2293,7.2317,7.2355,7.2354,7.2358,7.2477,7.2437,7.2485,7.2558,7.2593,7.2607,7.262,7.2659,7.2674,7.2494,7.2494,7.2494,0,7.2365,7.2405,7.2366,7.2402,7.2409,7.235,7.2398,7.2398,7.2401,7.2407,7.2373,7.2418,7.2412,7.2471,7.25,7.2507,7.2518,7.2484,7.2608,7.262,7.2631,7.2668,7.2683,7.2499,7.2499,7.2498,7.2498,0,7.2493,7.2522,7.2561,7.2563,7.2575,7.2618,7.2584,7.2602,7.2573,7.2555,7.2601,7.2593,7.2607,7.262,7.2593,7.2675,7.2655,7.2616,7.2555,7.2655,7.2688,7.2702,7.2507,7.2505,7.2504,7.2502,0,0,7.2668,7.2647,7.2662,7.2661,7.2653,7.2674,7.2714,7.2727,7.274,7.2745,7.2775,7.2809,7.2771,7.2777,7.275,7.2781,7.2872,7.2737,7.2736,7.2759,7.2958,7.2985,7.3002,7.2846,7.2849,7.2851,7.2957,0,7.2779,7.2843,7.2809,7.2878,7.2902,7.2847,7.2881,7.2879,7.2864,7.2883,7.2867,7.2889,7.284,7.2843,7.2872,7.2854,7.291,7.2847,7.2872,7.2873,7.287,7.302,7.3048,7.3148,7.297,7.2972,7.2974,0,7.2918,7.2926,7.2997,7.2981,7.299,7.3021,7.3029,7.3049,7.3045,7.3032,7.3038,7.3003,7.304,7.2982,7.3031,7.2989,7.2998,7.2991,7.2994,7.2992,7.2927,7.3018,7.318,7.3193,7.2995,7.2993,7.2992,0,7.3033,7.3063,7.3108,7.3109,7.3094,7.3116,7.3111,7.3104,7.3114,7.3122,7.3127,7.314,7.3146,7.3157,7.3126,7.3087,7.3178,7.3119,7.3166,7.3167,7.3184,7.3183,7.3346,7.3198,7.3197,7.3197,7.3197,0,7.3159,7.3203,7.3159,7.3186,7.3234,7.3195,7.3244,7.3233,7.3228,7.3251,7.3206,7.323,7.3189,7.3209,7.3186,7.3228,7.3233,7.3222,7.3214,7.3223,7.3224,7.3225,7.3216,7.3201,7.32,7.3199,7.3199,0,7.3294,7.3267,7.3312,7.3293,7.3289,7.3325,7.3309,7.3333,7.3315,7.3346,7.3351,7.3323,7.3343,7.3315,7.3333,7.3317,7.3374,7.3359,7.3375,7.3369,7.3416,7.3411,7.3583,7.3602,7.3445,7.3447,7.3448,0,7.3374,7.3407,7.3391,7.3403,7.34,7.3421,7.343,7.3394,7.3405,7.3403,7.3427,7.3444,7.3455,7.3491,7.3472,7.3485,7.3467,7.3526,7.3468,7.3476,7.3463,7.346,7.3461,7.3537,7.3539,7.354,7.3541,0,7.3518,7.3503,7.3517,7.3526,7.3537,7.3543,7.3546,7.3559,7.352,7.3535,7.3555,7.3564,7.3581,7.3598,7.3606,7.36,7.3564,7.356,7.3571,7.3579,7.3585,7.3579,7.3403,7.3556,7.3554,7.3553,7.3552,7.3552,7.3626,7.3651,7.3643,7.366,7.3658,7.3661,7.3682,7.3666,7.3682,7.3692,7.3671,7.3695,7.369,7.3698,7.3696,7.3715,7.3689,7.3706,7.3709,7.3713,7.3719,7.3586,7.3717,7.3717,7.3716,7.3716,7.3716,0,7.3764,7.3756,7.3772,7.3776,7.3789,7.3754,7.3755,7.3768,7.379,7.3788,7.3799,7.3821,7.3837,7.382,7.3832,7.385,7.3834,7.3854,7.3851,7.3849,7.3743,7.373,7.3867,7.3867,7.3867,7.3867,7.3867,7.3867,7.3837,7.3876,7.386,7.3898,7.389,7.3912,7.3915,7.3918,7.3916,7.3942,7.3954,7.3943,7.3934,7.3946,7.3958,7.3953,7.3958,7.3984,7.3972,7.3872,7.3857,7.3843,7.383,7.3986,7.3986,7.4076,7.4077,7.4077]}]]